Date String (YYYY-MM-DD hh:mm:ss) UTC,Instrument flags,absolute air pressure of the measurement (hPa),sample flow rate (lpm),inlet stack bypass flow (lpm),air temperature of the measurement (°C),ambient temperature measured by the external sensor (°C),aerosol sample conditioner tube jacket temperature (°C),OPC LED temperature (°C),internal box temperature (°C),relative humidity of the measurement (%),span deviation,mass concentration of particles derived from Lorenz-Mie calculation of OPC scattering (μg/m³),mass concentration of particles derived from Lorenz-Mie calculation of OPC scattering (μg/m³),mass concentration of particles derived from Lorenz-Mie calculation of OPC scattering (μg/m³)
DateTimeUTC,F1_M11,P_M11,Q1_M11,Q2_M11,T1_M11,T2_M11,T3_M11,T4_M11,T5_M11,U1_M11,ZSPAN_M11,X0_M11,X2_M11,X1_M11
2024-01-03 18:00:00,SystemResetWarning,0829.4,5.00,000.00,021.0,020.5,000.0,029.1,022.5,14.2,0000.0,0010.95,0005.35,0004.92
2024-01-03 18:01:00,SystemResetWarning,0829.3,5.01,000.00,021.0,020.5,000.0,029.2,022.5,14.3,0000.0,0010.65,0005.52,0005.05
2024-01-03 18:02:00,SystemResetWarning,0829.4,5.00,000.00,021.0,020.5,000.0,029.2,022.5,14.2,0000.0,0011.03,0005.77,0005.24
2024-01-03 18:03:00,SystemResetWarning,0829.3,5.01,000.00,021.1,020.5,000.0,029.2,022.6,14.2,0000.0,0011.29,0005.96,0005.40
2024-01-03 18:04:00,SystemResetWarning,0829.3,5.00,000.00,021.1,020.5,000.0,029.2,022.6,14.0,0000.0,0010.92,0006.09,0005.54
2024-01-03 18:05:00,SystemResetWarning,0829.3,5.00,000.00,021.1,020.6,000.0,029.2,022.6,14.0,0000.7,0011.74,0006.18,0005.64
2024-01-03 18:06:00,SystemResetWarning,0829.4,5.00,000.00,021.1,020.6,000.0,029.3,022.6,14.2,0001.7,0011.88,0006.27,0005.73
2024-01-03 18:07:00,SystemResetWarning,0829.4,4.99,000.00,021.1,020.6,000.0,029.3,022.6,14.2,0000.0,0011.47,0006.36,0005.81
2024-01-03 18:08:00,SystemResetWarning,0829.4,5.00,000.00,021.1,020.6,000.0,029.3,022.6,14.0,0002.0,0011.29,0006.45,0005.89
2024-01-03 18:09:00,SystemResetWarning,0829.4,5.00,000.00,021.1,020.6,000.0,029.3,022.6,13.9,0005.0,0011.46,0006.54,0005.97
2024-01-03 18:10:00,SystemResetWarning,0829.3,5.00,000.00,021.2,020.6,000.0,029.3,022.6,13.9,0005.0,0011.46,0006.64,0006.04
2024-01-03 18:11:00,SystemResetWarning,0829.2,5.00,000.00,021.2,020.6,000.0,029.3,022.7,13.9,0005.1,0011.46,0006.74,0006.07
2024-01-03 18:12:00,SystemResetWarning,0829.2,5.00,000.00,021.2,020.6,000.0,029.3,022.7,13.8,0005.2,0011.45,0006.74,0006.07
2024-01-03 18:13:00,SystemResetWarning,0829.2,5.01,000.00,021.2,020.7,000.0,029.4,022.7,13.9,0001.6,0011.30,0006.65,0006.02
2024-01-03 18:14:00,SystemResetWarning,0829.2,5.00,000.00,021.2,020.7,000.0,029.4,022.7,13.9,0000.0,0011.10,0006.57,0006.00
2024-01-03 18:15:00,SystemResetWarning,0829.1,4.99,000.00,021.2,020.7,000.0,029.4,022.7,14.1,0000.0,0011.27,0006.55,0005.99
2024-01-03 18:16:00,SystemResetWarning,0829.1,5.00,000.00,021.3,020.7,000.0,029.4,022.7,14.1,0000.0,0011.42,0006.57,0006.01
2024-01-03 18:17:00,SystemResetWarning,0829.1,5.00,000.00,021.3,020.7,000.0,029.4,022.8,14.2,0000.0,0011.45,0006.56,0006.03
2024-01-03 18:18:00,SystemResetWarning,0829.1,5.00,000.00,021.3,020.8,000.0,029.4,022.8,14.4,0000.8,0012.40,0006.59,0006.07
2024-01-03 18:19:00,SystemResetWarning,0829.1,5.01,000.00,021.3,020.8,000.0,029.5,022.8,14.5,0005.9,0013.24,0006.66,0006.13
2024-01-03 18:20:00,SystemResetWarning,0829.1,5.01,000.00,021.3,020.8,000.0,029.5,022.9,14.6,0005.9,0013.43,0006.70,0006.17
2024-01-03 18:21:00,SystemResetWarning,0829.1,5.00,000.00,021.4,020.8,000.0,029.5,022.9,14.4,0006.0,0013.81,0006.72,0006.21
2024-01-03 18:22:00,SystemResetWarning,0829.1,5.01,000.00,021.4,020.8,000.0,029.5,022.9,14.2,0005.8,0013.98,0006.72,0006.26
2024-01-03 18:23:00,SystemResetWarning,0829.0,4.99,000.00,021.4,020.9,000.0,029.5,022.9,14.3,0006.0,0014.17,0006.76,0006.29
2024-01-03 18:24:00,SystemResetWarning,0829.0,4.99,000.00,021.4,020.9,000.0,029.6,022.9,14.5,0006.0,0014.27,0006.78,0006.29
2024-01-03 18:25:00,SystemResetWarning,0828.9,5.00,000.00,021.4,020.9,000.0,029.6,022.9,14.6,0005.8,0014.87,0006.83,0006.29
2024-01-03 18:26:00,SystemResetWarning,0828.9,5.01,000.00,021.4,020.9,000.0,029.6,023.0,14.8,0006.1,0014.95,0006.86,0006.30
2024-01-03 18:27:00,SystemResetWarning,0828.9,5.00,000.00,021.5,020.9,000.0,029.6,023.0,15.0,0006.1,0014.14,0006.85,0006.29
2024-01-03 18:28:00,SystemResetWarning,0829.0,4.99,000.00,021.5,021.0,000.0,029.6,023.0,14.9,0005.9,0014.47,0006.90,0006.32
2024-01-03 18:29:00,SystemResetWarning,0829.0,4.99,000.00,021.5,021.0,000.0,029.6,023.0,15.0,0005.8,0013.98,0006.89,0006.33
2024-01-03 18:30:00,SystemResetWarning,0828.9,4.99,000.00,021.5,021.0,000.0,029.7,023.0,14.6,0005.8,0013.21,0006.84,0006.31
2024-01-03 18:31:00,SystemResetWarning,0828.9,5.01,000.00,021.5,021.0,000.0,029.7,023.1,14.3,0005.6,0012.98,0006.82,0006.32
2024-01-03 18:32:00,SystemResetWarning,0828.9,5.01,000.00,021.5,021.0,000.0,029.7,023.1,14.2,0005.4,0012.57,0006.82,0006.34
2024-01-03 18:33:00,SystemResetWarning,0828.8,5.00,000.00,021.6,021.1,000.0,029.7,023.1,14.2,0005.5,0012.39,0006.88,0006.38
2024-01-03 18:34:00,SystemResetWarning,0828.8,5.00,000.00,021.6,021.1,000.0,029.7,023.1,14.3,0005.4,0012.61,0006.92,0006.45
2024-01-03 18:35:00,SystemResetWarning,0828.8,5.00,000.00,021.6,021.1,000.0,029.7,023.1,14.4,0005.4,0012.70,0006.99,0006.52
2024-01-03 18:36:00,SystemResetWarning,0828.7,5.00,000.00,021.6,021.1,000.0,029.8,023.1,14.4,0005.2,0012.37,0007.07,0006.58
2024-01-03 18:37:00,SystemResetWarning,0828.7,5.00,000.00,021.6,021.1,000.0,029.8,023.1,14.3,0004.8,0012.27,0007.17,0006.66
2024-01-03 18:38:00,SystemResetWarning,0828.8,5.00,000.00,021.7,021.1,000.0,029.8,023.2,14.3,0004.2,0012.27,0007.28,0006.75
2024-01-03 18:39:00,SystemResetWarning,0828.8,4.99,000.00,021.7,021.1,000.0,029.8,023.2,14.5,0004.3,0012.28,0007.34,0006.80
2024-01-03 18:40:00,SystemResetWarning,0828.8,5.00,000.00,021.7,021.2,000.0,029.8,023.2,14.3,0004.4,0011.84,0007.41,0006.87
2024-01-03 18:41:00,SystemResetWarning,0828.7,5.00,000.00,021.7,021.2,000.0,029.9,023.2,14.2,0004.4,0011.77,0007.46,0006.93
2024-01-03 18:42:00,SystemResetWarning,0828.7,5.00,000.00,021.7,021.2,000.0,029.9,023.2,14.3,0004.4,0012.07,0007.51,0006.98
2024-01-03 18:43:00,SystemResetWarning,0828.7,5.00,000.00,021.7,021.2,000.0,029.9,023.2,14.2,0004.2,0012.28,0007.59,0007.02
2024-01-03 18:44:00,SystemResetWarning,0828.6,5.00,000.00,021.7,021.2,000.0,029.9,023.3,14.2,0004.4,0012.48,0007.64,0007.06
2024-01-03 18:45:00,SystemResetWarning,0828.6,5.00,000.00,021.8,021.2,000.0,029.9,023.3,14.2,0004.4,0012.44,0007.68,0007.08
2024-01-03 18:46:00,SystemResetWarning,0828.6,5.00,000.00,021.8,021.2,000.0,029.9,023.3,14.0,0004.6,0012.59,0007.71,0007.08
2024-01-03 18:47:00,SystemResetWarning,0828.6,4.99,000.00,021.8,021.3,000.0,029.9,023.3,13.8,0004.6,0013.30,0007.69,0007.09
2024-01-03 18:48:00,SystemResetWarning,0828.6,4.99,000.00,021.8,021.3,000.0,030.0,023.3,13.8,0004.9,0013.61,0007.68,0007.12
2024-01-03 18:49:00,SystemResetWarning,0828.6,5.00,000.00,021.8,021.3,000.0,030.0,023.3,13.8,0005.2,0013.65,0007.67,0007.13
2024-01-03 18:50:00,SystemResetWarning,0828.6,5.00,000.00,021.8,021.3,000.0,030.0,023.4,13.8,0005.5,0013.21,0007.74,0007.18
2024-01-03 18:51:00,SystemResetWarning,0828.6,5.00,000.00,021.9,021.3,000.0,030.0,023.4,13.9,0005.3,0013.19,0007.75,0007.20
2024-01-03 18:52:00,SystemResetWarning,0828.6,5.00,000.00,021.9,021.3,000.0,030.0,023.4,13.7,0005.4,0013.21,0007.81,0007.23
2024-01-03 18:53:00,SystemResetWarning,0828.5,5.00,000.00,021.9,021.4,000.0,030.0,023.4,13.6,0005.3,0013.11,0007.86,0007.24
2024-01-03 18:54:00,SystemResetWarning,0828.5,5.00,000.00,021.9,021.4,000.0,030.1,023.4,13.5,0005.1,0013.41,0007.91,0007.25
2024-01-03 18:55:00,SystemResetWarning,0828.6,5.00,000.00,021.9,021.4,000.0,030.1,023.5,13.3,0004.9,0013.75,0007.92,0007.28
2024-01-03 18:56:00,SystemResetWarning,0828.5,5.00,000.00,022.0,021.4,000.0,030.1,023.5,13.2,0004.8,0013.61,0007.94,0007.29
2024-01-03 18:57:00,SystemResetWarning,0828.6,5.00,000.00,022.0,021.4,000.0,030.1,023.5,13.4,0004.8,0014.31,0007.95,0007.32
2024-01-03 18:58:00,SystemResetWarning,0828.5,5.00,000.00,022.0,021.4,000.0,030.1,023.5,13.2,0004.9,0014.65,0008.01,0007.35
2024-01-03 18:59:00,SystemResetWarning,0828.5,5.01,000.00,022.0,021.5,000.0,030.2,023.5,13.1,0004.7,0014.12,0008.01,0007.33
